Location: ????????
(55.3155°N, 39.2900°E)
Time: 22:54:12
(UTC+00:00)

SWAS - Pass Details

Date: 14 April 2024
Orbit: 561 x 572 km, 69.9° (Epoch: 23 May)

Event Time Altitude Azimuth Distance (km) Brightness Sun altitude
Rises 00:33:21 0° 323° (NW) 2,781 8.0 -14.0°
Reaches altitude 10° 00:35:34 10° 322° (NW) 1,882 7.1 -13.8°
Maximum altitude 00:39:46 78° 237° (WSW) 592 4.3 -13.4°
Drops below altitude 10° 00:43:58 10° 151° (SSE) 1,877 6.9 -12.9°
Sets 00:46:11 0° 150° (SSE) 2,773 7.8 -12.6°
